BEL7WC ELLX-EDDH

Flight info

Callsign BEL7WC
Flight time 0h 47m
Altitude 37000
Route DIK N853 ONUNE/N0381F230 N853 HMM M170 BASUM/N0439F360 Y850 MUBZI M105 RIBSO RIBSO7A
Aircraft A20N/M-SDE2E3FGHIRWXY/LB1

Departure

Time 2026-05-05 13:35
Airport Luxembourg-Findel International Airport (ELLX)

Arrival

Time 2026-05-05 14:23
Airport Hamburg Helmut Schmidt Airport (EDDH)
Time Latitude Longitude Altitude Speed Heading
2026-05-05 13:05 49.63371 6.21736 1235 ft 0 kts 333°
2026-05-05 13:21 49.63353 6.21751 1236 ft 3 kts 333°
2026-05-05 13:21 49.63329 6.21766 1235 ft 3 kts 325°
2026-05-05 13:22 49.63314 6.21758 1234 ft 0 kts 295°
2026-05-05 13:22 49.63318 6.21746 1235 ft 2 kts 96°
2026-05-05 13:22 49.63335 6.21722 1235 ft 0 kts 155°
2026-05-05 13:22 49.63331 6.21689 1235 ft 0 kts 52°
2026-05-05 13:23 49.63345 6.21708 1235 ft 0 kts 124°
2026-05-05 13:23 49.63334 6.21676 1235 ft 4 kts 55°
2026-05-05 13:23 49.63332 6.21669 1235 ft 2 kts 191°
2026-05-05 13:23 49.63314 6.21654 1235 ft 2 kts 205°
2026-05-05 13:24 49.63298 6.21639 1234 ft 2 kts 177°
2026-05-05 13:24 49.63282 6.21657 1233 ft 2 kts 111°
2026-05-05 13:24 49.63274 6.21684 1232 ft 2 kts 103°
2026-05-05 13:24 49.63267 6.21706 1231 ft 1 kts 98°
2026-05-05 13:25 49.63263 6.21724 1230 ft 0 kts 98°
2026-05-05 13:25 49.63259 6.21738 1230 ft 1 kts 97°
2026-05-05 13:25 49.63257 6.21750 1229 ft 0 kts 105°
2026-05-05 13:25 49.63255 6.21760 1229 ft 0 kts 103°
2026-05-05 13:26 49.63252 6.21767 1229 ft 0 kts 103°
2026-05-05 13:26 49.63251 6.21772 1229 ft 0 kts 101°
2026-05-05 13:28 49.63252 6.21765 1229 ft 1 kts 103°
2026-05-05 13:29 49.63255 6.21740 1229 ft 3 kts 102°
2026-05-05 13:29 49.63261 6.21703 1231 ft 3 kts 102°
2026-05-05 13:29 49.63261 6.21705 1231 ft 0 kts 102°
2026-05-05 13:31 49.63261 6.21725 1230 ft 0 kts 73°
2026-05-05 13:32 49.63263 6.21730 1230 ft 3 kts 73°
2026-05-05 13:33 49.63272 6.21781 1230 ft 5 kts 77°
2026-05-05 13:33 49.63256 6.21836 1229 ft 8 kts 137°
2026-05-05 13:33 49.63188 6.21909 1221 ft 10 kts 131°
2026-05-05 13:33 49.63164 6.22023 1215 ft 13 kts 136°
2026-05-05 13:34 49.63071 6.22116 1209 ft 17 kts 152°
2026-05-05 13:34 49.63009 6.22136 1207 ft 6 kts 251°
2026-05-05 13:34 49.62947 6.21982 1212 ft 47 kts 232°
2026-05-05 13:34 49.62656 6.21218 1224 ft 114 kts 241°
2026-05-05 13:35 49.62196 6.19925 1374 ft 154 kts 238°
2026-05-05 13:35 49.61671 6.18447 1935 ft 161 kts 254°
2026-05-05 13:35 49.62002 6.16824 2552 ft 175 kts 315°
2026-05-05 13:35 49.62996 6.15887 3347 ft 172 kts 343°
2026-05-05 13:36 49.64200 6.15733 3865 ft 181 kts
2026-05-05 13:36 49.65507 6.15827 4245 ft 199 kts
2026-05-05 13:36 49.66946 6.15861 4695 ft 215 kts 359°
2026-05-05 13:36 49.68482 6.15842 5007 ft 230 kts 358°
2026-05-05 13:37 49.70137 6.15795 5329 ft 245 kts 358°
2026-05-05 13:37 49.71824 6.15735 6066 ft 243 kts 358°
2026-05-05 13:37 49.73515 6.15669 6773 ft 244 kts 358°
2026-05-05 13:37 49.75193 6.15599 7447 ft 246 kts 358°
2026-05-05 13:38 49.76901 6.15526 8109 ft 248 kts 358°
2026-05-05 13:38 49.78627 6.15452 8758 ft 251 kts 359°
2026-05-05 13:38 49.80366 6.15378 9422 ft 252 kts 359°
2026-05-05 13:38 49.82127 6.15304 10091 ft 257 kts 359°
2026-05-05 13:39 49.83940 6.15227 10718 ft 270 kts 359°
2026-05-05 13:39 49.85878 6.15146 11202 ft 287 kts 359°
2026-05-05 13:39 49.87924 6.15061 11666 ft 305 kts 359°
2026-05-05 13:39 49.90173 6.14965 12126 ft 323 kts 359°
2026-05-05 13:40 49.92528 6.14863 12541 ft 342 kts 359°
2026-05-05 13:40 49.94953 6.14758 13022 ft 356 kts 359°
2026-05-05 13:40 49.97437 6.14650 13741 ft 361 kts 359°
2026-05-05 13:40 49.99951 6.14542 14512 ft 365 kts 359°
2026-05-05 13:41 50.02465 6.14435 15236 ft 369 kts 359°
2026-05-05 13:41 50.05035 6.14324 15933 ft 373 kts 359°
2026-05-05 13:41 50.07662 6.14210 16620 ft 378 kts 359°
2026-05-05 13:41 50.10314 6.14094 17290 ft 383 kts 359°
2026-05-05 13:42 50.12976 6.13979 17934 ft 387 kts 359°
2026-05-05 13:42 50.15704 6.13857 18574 ft 391 kts 359°
2026-05-05 13:42 50.18414 6.13737 19205 ft 395 kts 359°
2026-05-05 13:42 50.21143 6.13617 19827 ft 399 kts 359°
2026-05-05 13:43 50.23926 6.13495 20440 ft 402 kts 359°
2026-05-05 13:43 50.26752 6.13380 21030 ft 406 kts
2026-05-05 13:43 50.29557 6.13472 21607 ft 410 kts
2026-05-05 13:43 50.32403 6.13875 22168 ft 413 kts
2026-05-05 13:44 50.35234 6.14527 22722 ft 416 kts 10°
2026-05-05 13:44 50.38109 6.15258 23265 ft 420 kts 10°
2026-05-05 13:44 50.40997 6.16003 23786 ft 424 kts 10°
2026-05-05 13:44 50.43915 6.16754 24299 ft 427 kts 10°
2026-05-05 13:45 50.46851 6.17502 24811 ft 431 kts 10°
2026-05-05 13:45 50.49836 6.18258 25311 ft 434 kts 10°
2026-05-05 13:45 50.52822 6.19013 25787 ft 438 kts 10°
2026-05-05 13:45 50.55828 6.19774 26326 ft 439 kts
2026-05-05 13:46 50.58861 6.20543 26816 ft 442 kts
2026-05-05 13:46 50.61902 6.21317 27228 ft 445 kts
2026-05-05 13:46 50.64973 6.22102 27649 ft 448 kts
2026-05-05 13:46 50.68064 6.22917 28046 ft 452 kts 12°
2026-05-05 13:47 50.71056 6.24335 28423 ft 454 kts 24°
2026-05-05 13:47 50.73849 6.26645 28833 ft 453 kts 34°
2026-05-05 13:47 50.76346 6.29699 29324 ft 451 kts 43°
2026-05-05 13:47 50.78675 6.33073 29896 ft 449 kts 45°
2026-05-05 13:48 50.80947 6.36461 30428 ft 448 kts 45°
2026-05-05 13:48 50.83205 6.39824 30901 ft 448 kts 45°
2026-05-05 13:48 50.85500 6.43220 31326 ft 449 kts 45°
2026-05-05 13:48 50.87766 6.46558 31736 ft 450 kts 44°
2026-05-05 13:49 50.90058 6.49925 32128 ft 451 kts 44°
2026-05-05 13:49 50.92367 6.53312 32514 ft 452 kts 44°
2026-05-05 13:49 50.94659 6.56678 32903 ft 452 kts 44°
2026-05-05 13:49 50.96986 6.60104 33296 ft 453 kts 44°
2026-05-05 13:50 50.99276 6.63481 33644 ft 453 kts 45°
2026-05-05 13:50 51.01521 6.67012 33985 ft 453 kts 49°
2026-05-05 13:50 51.03590 6.70713 34326 ft 452 kts 53°
2026-05-05 13:50 51.05544 6.74653 34638 ft 452 kts 56°
2026-05-05 13:51 51.07462 6.78686 34946 ft 454 kts 54°
2026-05-05 13:51 51.09609 6.82291 35147 ft 458 kts 43°
2026-05-05 13:51 51.12178 6.85288 35282 ft 463 kts 32°
2026-05-05 13:51 51.15016 6.87854 35375 ft 468 kts 29°
2026-05-05 13:52 51.20773 6.92797 35543 ft 476 kts 29°
2026-05-05 13:52 51.26582 6.97893 35697 ft 483 kts 29°
2026-05-05 13:53 51.32490 7.03167 35834 ft 489 kts 30°
2026-05-05 13:53 51.38405 7.08477 35991 ft 493 kts 29°
2026-05-05 13:54 51.41414 7.11186 36136 ft 493 kts 29°
2026-05-05 13:54 51.44369 7.13849 36277 ft 491 kts 28°
2026-05-05 13:54 51.47355 7.16430 36404 ft 490 kts 27°
2026-05-05 13:54 51.50391 7.18970 36528 ft 490 kts 27°
2026-05-05 13:55 51.53385 7.21489 36659 ft 489 kts 27°
2026-05-05 13:55 51.56378 7.24069 36817 ft 489 kts 27°
2026-05-05 13:55 51.62331 7.29298 36860 ft 489 kts 28°
2026-05-05 13:56 51.68241 7.34520 36870 ft 488 kts 28°
2026-05-05 13:56 51.74181 7.39779 36871 ft 488 kts 27°
2026-05-05 13:57 51.80136 7.45065 36876 ft 489 kts 27°
2026-05-05 13:57 51.86096 7.50369 36878 ft 489 kts 27°
2026-05-05 13:58 51.92018 7.55659 36876 ft 489 kts 27°
2026-05-05 13:58 51.97962 7.60985 36885 ft 489 kts 27°
2026-05-05 13:59 52.06853 7.68973 36898 ft 489 kts 27°
2026-05-05 14:00 52.14758 7.76114 36890 ft 489 kts 27°
2026-05-05 14:00 52.21668 7.82379 36898 ft 489 kts 27°
2026-05-05 14:01 52.27553 7.87728 36894 ft 489 kts 27°
2026-05-05 14:01 52.33431 7.93097 36560 ft 480 kts 27°
2026-05-05 14:02 52.36349 7.95767 36104 ft 481 kts 27°
2026-05-05 14:02 52.39257 7.98427 35446 ft 485 kts 27°
2026-05-05 14:02 52.42198 8.01122 34638 ft 489 kts 27°
2026-05-05 14:02 52.45138 8.03818 33740 ft 491 kts 27°
2026-05-05 14:03 52.48109 8.06551 32877 ft 492 kts 27°
2026-05-05 14:03 52.49715 8.08030 32409 ft 492 kts 27°
2026-05-05 14:04 52.51683 8.09845 31763 ft 494 kts 27°
2026-05-05 14:04 52.54684 8.12612 30870 ft 494 kts 27°
2026-05-05 14:05 52.57645 8.15353 30024 ft 493 kts 27°
2026-05-05 14:05 52.60601 8.18096 29121 ft 493 kts 27°
2026-05-05 14:05 52.63564 8.20843 28152 ft 494 kts 27°
2026-05-05 14:05 52.66573 8.23641 27159 ft 494 kts 27°
2026-05-05 14:06 52.69547 8.26409 26143 ft 494 kts 28°
2026-05-05 14:06 52.72519 8.29178 25089 ft 495 kts 28°
2026-05-05 14:06 52.75484 8.31945 24037 ft 495 kts 28°
2026-05-05 14:06 52.78485 8.34750 22944 ft 495 kts 28°
2026-05-05 14:07 52.81453 8.37530 21886 ft 493 kts 28°
2026-05-05 14:07 52.84369 8.40267 21483 ft 477 kts 28°
2026-05-05 14:07 52.87211 8.42944 21330 ft 458 kts 28°
2026-05-05 14:07 52.89758 8.45991 20449 ft 460 kts 43°
2026-05-05 14:08 52.91853 8.49966 19239 ft 467 kts 50°
2026-05-05 14:08 52.93899 8.54126 18184 ft 468 kts 50°
2026-05-05 14:08 52.95902 8.58274 17741 ft 454 kts 51°
2026-05-05 14:08 52.97820 8.62272 17445 ft 439 kts 51°
2026-05-05 14:09 52.99714 8.66224 16569 ft 439 kts 51°
2026-05-05 14:09 53.01609 8.70175 15708 ft 437 kts 51°
2026-05-05 14:09 53.03492 8.74091 15005 ft 432 kts 51°
2026-05-05 14:09 53.05340 8.77954 14321 ft 427 kts 51°
2026-05-05 14:10 53.07173 8.81789 13616 ft 422 kts 51°
2026-05-05 14:10 53.08976 8.85568 12965 ft 416 kts 51°
2026-05-05 14:10 53.10740 8.89267 12654 ft 402 kts 51°
2026-05-05 14:10 53.12434 8.92824 12431 ft 387 kts 51°
2026-05-05 14:11 53.14073 8.96273 12211 ft 374 kts 51°
2026-05-05 14:11 53.15658 8.99609 11880 ft 364 kts 51°
2026-05-05 14:11 53.17207 9.02872 11369 ft 361 kts 51°
2026-05-05 14:11 53.18751 9.06128 10965 ft 354 kts 51°
2026-05-05 14:12 53.20237 9.09265 10874 ft 338 kts 51°
2026-05-05 14:12 53.21659 9.12275 10868 ft 320 kts 51°
2026-05-05 14:12 53.22986 9.15087 10864 ft 304 kts 51°
2026-05-05 14:12 53.24289 9.17848 10880 ft 303 kts 51°
2026-05-05 14:13 53.25584 9.20592 10795 ft 299 kts 51°
2026-05-05 14:13 53.26864 9.23312 10397 ft 299 kts 51°
2026-05-05 14:13 53.28150 9.26045 9970 ft 299 kts 51°
2026-05-05 14:13 53.29421 9.28748 9594 ft 297 kts 51°
2026-05-05 14:14 53.30688 9.31440 9233 ft 294 kts 51°
2026-05-05 14:14 53.31939 9.34106 8857 ft 292 kts 51°
2026-05-05 14:14 53.33172 9.36745 8496 ft 290 kts 51°
2026-05-05 14:14 53.34416 9.39407 8126 ft 287 kts 50°
2026-05-05 14:15 53.35627 9.41994 7767 ft 285 kts 50°
2026-05-05 14:15 53.36847 9.44601 7393 ft 283 kts 50°
2026-05-05 14:15 53.38042 9.47158 7041 ft 280 kts 50°
2026-05-05 14:15 53.39247 9.49740 6681 ft 278 kts 50°
2026-05-05 14:16 53.40418 9.52250 6314 ft 275 kts 50°
2026-05-05 14:16 53.41589 9.54770 5960 ft 273 kts 51°
2026-05-05 14:16 53.42719 9.57268 5603 ft 270 kts 51°
2026-05-05 14:16 53.43859 9.59751 5359 ft 263 kts 50°
2026-05-05 14:17 53.44967 9.62099 5169 ft 253 kts 50°
2026-05-05 14:17 53.46066 9.64377 4877 ft 250 kts 49°
2026-05-05 14:17 53.47153 9.66601 4542 ft 247 kts 50°
2026-05-05 14:17 53.48229 9.68792 4213 ft 236 kts 50°
2026-05-05 14:18 53.49249 9.70861 3901 ft 226 kts 50°
2026-05-05 14:18 53.50231 9.72855 3579 ft 217 kts 50°
2026-05-05 14:18 53.51175 9.74775 3257 ft 208 kts 50°
2026-05-05 14:18 53.52068 9.76591 2983 ft 198 kts 50°
2026-05-05 14:19 53.52918 9.78325 2779 ft 187 kts 50°
2026-05-05 14:19 53.53708 9.79930 2701 ft 171 kts 50°
2026-05-05 14:19 53.54456 9.81443 2404 ft 169 kts 49°
2026-05-05 14:19 53.55209 9.82955 2103 ft 167 kts 49°
2026-05-05 14:20 53.55944 9.84429 1817 ft 161 kts 50°
2026-05-05 14:20 53.56627 9.85812 1637 ft 145 kts 49°
2026-05-05 14:20 53.57272 9.87081 1495 ft 141 kts 49°
2026-05-05 14:20 53.57894 9.88355 1312 ft 140 kts 51°
2026-05-05 14:21 53.58495 9.89622 1121 ft 139 kts 51°
2026-05-05 14:21 53.59094 9.90876 942 ft 138 kts 52°
2026-05-05 14:21 53.59711 9.92121 789 ft 139 kts 50°
2026-05-05 14:21 53.60355 9.93363 586 ft 140 kts 51°
2026-05-05 14:22 53.60965 9.94620 393 ft 138 kts 53°
2026-05-05 14:22 53.61576 9.95871 210 ft 137 kts 51°
2026-05-05 14:22 53.62179 9.97093 48 ft 132 kts 49°
2026-05-05 14:22 53.62648 9.98043 41 ft 68 kts 51°
2026-05-05 14:23 53.62805 9.98366 43 ft 12 kts 50°
2026-05-05 14:23 53.62928 9.98608 43 ft 40 kts 48°
2026-05-05 14:23 53.63103 9.98957 44 ft 38 kts 51°
2026-05-05 14:23 53.63274 9.99341 45 ft 41 kts 71°
2026-05-05 14:24 53.63280 9.99634 46 ft 0 kts 99°
2026-05-05 14:24 53.63279 9.99645 46 ft 3 kts 101°
2026-05-05 14:24 53.63266 9.99708 46 ft 7 kts 123°
2026-05-05 14:24 53.63216 9.99764 46 ft 10 kts 151°
2026-05-05 14:25 53.63145 9.99829 46 ft 12 kts 153°
2026-05-05 14:25 53.63059 9.99903 46 ft 15 kts 152°
2026-05-05 14:25 53.62958 9.99989 46 ft 16 kts 151°
2026-05-05 14:25 53.62931 10.00114 47 ft 8 kts 41°
2026-05-05 14:26 53.62942 10.00154 47 ft 2 kts 106°
2026-05-05 14:26 53.62940 10.00209 47 ft 6 kts 97°
2026-05-05 14:26 53.62929 10.00277 47 ft 3 kts 108°
2026-05-05 14:26 53.62925 10.00294 47 ft 0 kts 108°